Weather History for Reggio Calabria, Italy

Change the Weather History Date:

Monday, July 22, 2013

  Actual Average Record
Temperature  
Mean Temperature 83 °F -  
Max Temperature 89 °F 86 °F 96 °F (2002)
Min Temperature 77 °F 73 °F 69 °F (1996)
Cooling Degree Days 18    
Growing Degree Days 33 (Base 50)    
Moisture  
Dew Point 64 °F    
Average Humidity 55    
Maximum Humidity 65    
Minimum Humidity 40    
Precipitation  
Precipitation 0.00 in - - ()
Sea Level Pressure  
Sea Level Pressure 29.93 in    
Wind  
Wind Speed 8 mph ()    
Max Wind Speed 17 mph    
Max Gust Speed -    
Visibility 6.2 miles    
Events      
Averages and records for this station are not official NWS values.
T = Trace of Precipitation, MM = Missing Value Source: Averaged Metar Reports

Daily Weather History Graph

Daily Weather History Graph

Search for Another Location

Airport:

Trip Planner

Search our weather history database for the weather conditions in past years. The results will help you decide how hot, cold, wet, or windy it might be!

Date:

Astronomy

Jul. 22, 2013 Rise Set
Actual Time 5:51 AM CEST 8:15 PM CEST
Civil Twilight 5:21 AM CEST 8:45 PM CEST
Nautical Twilight 4:44 AM CEST 9:22 PM CEST
Astronomical Twilight 4:03 AM CEST 10:03 PM CEST
Moon 7:49 PM CEST (7/22) 5:26 AM CEST (7/22)
Length of Visible Light 15h 23m
Length of Day
14h 23m
Full, 100% of the Moon is Illuminated
Jul 22
Full
Jul 22
Full
Jul 29
Last Quarter
Aug 6
New
Aug 14
First Quarter

Hourly Weather History & Observations

Time (CEST) Temp. Heat Index Dew Point Humidity Pressure Visibility Wind Dir Wind Speed Gust Speed Precip Events Conditions
5:50 AM 77.0 °F - 64.4 °F 65% 29.95 in 6.2 mi North 6.9 mph - N/A   Partly Cloudy
6:50 AM 77.0 °F - 64.4 °F 65% 29.95 in 6.2 mi NE 5.8 mph - N/A   Partly Cloudy
7:50 AM 78.8 °F - 66.2 °F 65% 29.95 in 6.2 mi NNE 10.4 mph - N/A   Partly Cloudy
8:50 AM 80.6 °F 82.7 °F 66.2 °F 61% 29.92 in 6.2 mi North 15.0 mph - N/A   Partly Cloudy
9:50 AM 82.4 °F 85.4 °F 68.0 °F 62% 29.95 in 6.2 mi NNW 15.0 mph - N/A   Partly Cloudy
10:50 AM 82.4 °F 84.6 °F 66.2 °F 58% 29.92 in 6.2 mi NNW 16.1 mph - N/A   Partly Cloudy
11:50 AM 84.2 °F 86.6 °F 66.2 °F 55% 29.92 in 6.2 mi NNW 17.3 mph - N/A   Partly Cloudy
12:50 PM 84.2 °F 87.3 °F 68.0 °F 58% 29.92 in 6.2 mi North 17.3 mph - N/A   Partly Cloudy
1:50 PM 87.8 °F 87.6 °F 60.8 °F 40% 29.92 in 6.2 mi NNW 8.1 mph - N/A   Partly Cloudy
2:50 PM 89.6 °F 90.1 °F 62.6 °F 40% 29.92 in 6.2 mi WSW 6.9 mph - N/A   Partly Cloudy
3:50 PM 86.0 °F 87.3 °F 64.4 °F 48% 29.92 in 6.2 mi West 6.9 mph - N/A   Scattered Clouds
4:50 PM 86.0 °F 85.4 °F 59.0 °F 40% 29.92 in 6.2 mi Variable 4.6 mph - N/A   Partly Cloudy
5:50 PM 84.2 °F 84.4 °F 60.8 °F 45% 29.92 in 6.2 mi West 4.6 mph - N/A   Partly Cloudy
6:50 PM 84.2 °F 83.8 °F 59.0 °F 42% 29.92 in 6.2 mi WSW 4.6 mph - N/A   Partly Cloudy
7:50 PM 80.6 °F 82.3 °F 64.4 °F 58% 29.92 in 6.2 mi West 3.5 mph - N/A   Scattered Clouds
8:50 PM 80.6 °F 82.3 °F 64.4 °F 58% 29.92 in 6.2 mi Variable 2.3 mph - N/A   Scattered Clouds
9:50 PM 80.6 °F 82.7 °F 66.2 °F 61% 29.92 in 6.2 mi North 6.9 mph - N/A   Scattered Clouds
10:50 PM 80.6 °F 82.3 °F 64.4 °F 58% 29.92 in 6.2 mi NNW 9.2 mph - N/A   Scattered Clouds
11:50 PM 78.8 °F - 64.4 °F 61% 29.92 in 6.2 mi North 10.4 mph - N/A   Scattered Clouds